Temp_Advection
nan nan nan nan nan nan nan nan nan nan nan nan nan nan nan nan nan nan nan nan nan nan nan nan nan nan nan nan nan nan nan nan nan nan nan nan nan nan nan nan nan nan nan nan nan nan nan nan nan nan nan nan nan nan nan nan nan nan nan nan nan nan nan nan nan nan nan nan nan
nan -1 -1 -1 -1 -0 -0 -1 -0 -0 -1 -1 -1 -1 -1 -1 -1 -1 -1 -1 -1 -1 -1 -0 -0 -0 -0 -0 -0 -0 -0 -0 -0 -0 -0 -0 -1 -1 -1 -1 -1 -1 -1 -1 -1 -1 -1 -1 -1 -1 -1 -1 -0 -0 0 0 0 0 -0 -1 -1 -1 -1 -1 -0 -0 -0 -0 nan
nan -0 -0 -0 -0 -0 -0 -0 -0 -0 -0 -0 -1 -1 -0 -0 -0 -1 -1 -1 -1 -1 -1 -1 -1 -1 -0 -0 -0 -0 -0 -0 -1 -0 -0 -0 -1 -1 -1 -1 -1 -1 -1 -1 -1 -1 -1 -1 -1 -1 -1 -1 -1 -1 -0 -0 0 0 0 0 -0 -1 -1 -1 -1 -0 -0 -0 nan
nan -0 -0 -0 -0 -0 -0 -0 -0 -0 -0 -0 -0 -0 -0 -0 -0 -0 -0 -0 -0 -1 -1 -1 -1 -1 -1 -1 -1 -1 -1 -0 -0 -0 -1 -1 -1 -1 -1 -1 -1 -1 -1 -1 -1 -1 -1 -0 -0 -1 -1 -1 -1 -1 -1 -1 -0 -0 0 1 0 0 -0 -1 -1 -1 -1 -0 nan
nan -1 -1 -1 -1 -1 -1 -1 -1 -1 -1 -1 -0 -0 -0 -0 -0 -0 0 0 -0 -0 -0 -1 -1 -1 -1 -1 -1 -1 -1 -1 -0 -0 -0 -1 -1 -1 -1 -1 -1 -1 -1 -1 -1 -1 -1 -1 -0 -0 -0 -1 -1 -1 -1 -1 -1 -1 -0 0 0 1 0 0 -0 -1 -1 -1 nan
nan -1 -1 -1 -1 -1 -1 -1 -1 -1 -1 -0 -0 -0 -0 -0 -0 -0 -0 -0 -0 -0 0 0 -0 -0 -1 -1 -1 -1 -1 -1 -1 -1 -1 -1 -1 -1 -1 -1 -1 -1 -1 -1 -1 -1 -1 -1 -1 -1 -0 -0 -0 -0 -1 -1 -1 -1 -1 -0 -0 0 0 1 0 0 -0 -1 nan
nan -1 -1 -1 -1 -1 -1 -1 -1 -1 -1 -0 -1 -0 -1 -1 -1 -1 -1 -1 -0 -0 0 0 0 0 -0 -0 -0 -1 -1 -1 -1 -1 -1 -1 -1 -1 -1 -1 -1 -1 -1 -1 -1 -1 -1 -1 -1 -1 -1 -1 -0 -0 -0 -1 -1 -1 -1 -1 -1 -1 -0 0 1 1 0 0 nan
nan -0 -0 -0 -1 -1 -1 -0 -0 -0 -0 -1 -1 -1 -1 -1 -1 -1 -1 -1 -1 -1 -1 -0 -0 -0 0 0 0 -0 -0 -1 -1 -1 -1 -1 -1 -1 -1 -1 -1 -1 -1 -1 -1 -1 -1 -1 -1 -1 -1 -1 -1 -1 -0 -0 -0 -1 -1 -1 -1 -1 -1 -1 -0 0 1 1 nan
nan -0 -0 -0 -0 -0 -0 -0 -0 -0 -0 -0 -1 -1 -1 -1 -1 -1 -1 -1 -1 -1 -1 -1 -1 -0 -0 -0 -0 -0 0 -0 -0 -0 -1 -1 -1 -1 -1 -1 -1 -1 -1 -1 -1 -1 -1 -1 -1 -1 -1 -1 -1 -1 -1 -1 -0 -0 -0 -1 -1 -1 -1 -1 -1 -1 -0 0 nan
nan -0 -0 -0 -0 -0 -0 -0 -0 -0 -0 -0 -0 -1 -1 -1 -1 -1 -1 -1 -1 -1 -1 -1 -1 -1 -1 -1 -0 -0 -0 -0 -0 0 -0 -0 -1 -1 -1 -1 -1 -1 -1 -1 -1 -1 -1 -1 -1 -1 -1 -1 -1 -1 -1 -1 -1 -0 -0 -0 -0 -0 -1 -1 -1 -1 -1 -0 nan
nan -0 -0 -0 -0 -0 -0 -0 -0 -0 -0 -0 -0 -0 -0 -1 -1 -1 -1 -1 -1 -1 -1 -1 -1 -1 -1 -1 -1 -1 -1 -1 -0 -0 -0 0 0 -0 -0 -1 -1 -1 -1 -1 -1 -1 -1 -1 -1 -1 -1 -1 -1 -1 -1 -1 -1 -1 -0 -0 -0 -0 -0 -0 -1 -1 -1 -1 nan
nan -0 -0 -0 -0 -0 -0 -0 -0 -0 -0 -0 -0 -0 -0 -0 -0 -0 -0 -1 -1 -1 -1 -1 -1 -1 -1 -1 -1 -1 -1 -1 -1 -1 -1 -0 -0 0 0 -0 -0 -0 -1 -1 -1 -1 -1 -1 -1 -1 -1 -1 -1 -1 -1 -1 -1 -1 -1 -1 -0 -0 -0 -0 -0 -1 -1 -1 nan
nan -0 -0 -0 -0 -0 -0 -0 -0 -0 -0 -0 -0 -0 -0 -0 -0 -0 -0 -0 -0 -1 -1 -1 -1 -1 -1 -1 -1 -1 -1 -1 -1 -1 -1 -1 -0 -0 -0 0 0 -0 -0 -0 -1 -1 -1 -1 -1 -1 -1 -1 -1 -1 -1 -1 -1 -1 -1 -1 -1 -1 -0 -0 -0 -0 -0 -1 nan
nan -0 -0 -0 -0 -0 -0 -0 -0 -0 -0 -0 -0 -0 -0 -0 -0 -0 -0 -0 -0 -0 -0 -1 -1 -1 -1 -1 -1 -1 -1 -1 -1 -1 -1 -1 -1 -1 -0 -0 -0 0 0 -0 -0 -0 -1 -1 -1 -1 -1 -1 -1 -1 -1 -1 -1 -1 -1 -1 -1 -1 -1 -1 -0 -0 -0 -0 nan
nan -0 -0 -0 -0 -0 -0 -0 -0 -0 -0 -0 -0 -0 -0 -0 -0 -0 -0 -0 -0 -0 -0 -0 -0 -1 -1 -1 -1 -1 -1 -1 -1 -1 -1 -1 -1 -1 -1 -1 -0 -0 -0 0 0 -0 -0 -0 -1 -1 -1 -1 -1 -1 -1 -1 -1 -1 -1 -1 -1 -1 -1 -1 -1 -0 -0 -0 nan
nan -0 -0 -0 -0 -0 -0 -0 -0 -0 -0 -0 -0 -0 -0 -0 -0 -0 -0 -0 -0 -0 -0 -0 -0 -0 -1 -1 -1 -1 -1 -1 -1 -1 -1 -1 -1 -1 -1 -1 -1 -1 -0 -0 0 0 0 -0 -0 -0 -1 -1 -1 -1 -1 -1 -1 -1 -1 -1 -1 -1 -1 -1 -1 -1 -1 -0 nan
nan -0 -0 -0 -0 -0 -0 -0 -0 -0 -0 -0 -0 -0 -0 -0 -0 -0 -0 -0 -0 -0 -0 -0 -0 -0 -1 -1 -1 -1 -1 -1 -1 -1 -1 -1 -1 -1 -1 -1 -1 -1 -1 -1 -0 -0 -0 0 -0 -0 -0 -0 -0 -1 -1 -1 -1 -1 -1 -1 -1 -1 -1 -1 -1 -1 -1 -1 nan
nan -0 -0 -0 -0 -0 -0 -0 -0 -0 -0 -0 -0 -0 -0 -0 -0 -0 -0 -0 -1 -0 -0 -0 -0 -0 -0 -0 -0 -1 -1 -1 -1 -1 -1 -1 -1 -1 -1 -1 -1 -1 -1 -1 -1 -0 -0 -0 -0 -0 -0 -0 -0 -0 -0 -1 -1 -1 -1 -1 -1 -1 -1 -1 -1 -1 -1 -1 nan
nan -0 -0 -0 -0 -0 -0 -0 -0 -0 -0 -0 -0 -0 -0 -0 -0 -0 -0 -0 -1 -1 -1 -0 -0 -0 -0 -0 -0 -0 -0 -1 -1 -1 -1 -1 -1 -1 -1 -1 -1 -1 -1 -1 -1 -1 -1 -0 -0 -0 -0 -0 -0 -0 -0 -0 -0 -0 -1 -1 -1 -1 -1 -1 -1 -1 -1 -1 nan
nan -0 -0 -0 -0 -0 -0 -0 -0 -0 -0 -0 -0 -0 -0 -0 -0 -0 -0 -0 -1 -1 -1 -1 -0 -0 -0 -0 0 0 0 -0 -0 -0 -1 -1 -1 -1 -1 -1 -2 -2 -1 -1 -1 -1 -1 -1 -1 -0 -0 -0 -0 -0 -0 -0 -0 -0 -0 -0 -1 -1 -1 -1 -1 -1 -1 -1 nan
nan -0 -0 -0 -0 -0 -0 -0 -0 -0 -0 -0 -0 -0 -0 -0 -0 -0 -0 -0 -1 -1 -1 -1 -1 -1 -1 -0 -0 0 0 0 0 -0 -0 -0 -0 -1 -1 -1 -1 -1 -2 -2 -1 -1 -1 -1 -1 -1 -1 -0 -0 -0 -0 -0 -0 -0 -0 -0 -0 -0 -1 -1 -1 -1 -1 -1 nan
nan -0 -0 -0 -0 -0 -0 -0 -0 -0 -0 -0 -0 -0 -0 -0 -0 -0 -0 -0 -0 -0 -0 -0 -0 -0 -0 -1 -0 -0 0 0 0 0 0 0 0 0 -0 -0 -1 -1 -1 -1 -2 -2 -1 -1 -1 -1 -1 -1 -1 -1 -0 -0 -0 -0 -0 -0 -0 -0 -0 -0 -1 -1 -1 -1 nan
nan -0 -0 -0 -0 -0 -0 -0 -0 -0 -0 -0 -0 -1 -0 -1 -0 -0 -0 -0 -0 -0 -0 -0 -0 -0 -0 -0 -0 -0 -0 -0 0 0 0 0 0 0 0 0 -0 -0 -1 -1 -1 -1 -2 -2 -2 -1 -1 -1 -1 -1 -1 -1 -0 -0 -0 -0 -0 -0 -0 -0 -0 -1 -1 -1 nan
nan -0 -0 -0 -0 -0 -0 -0 -0 -0 -0 -0 -0 -0 -0 -0 -0 -0 -0 -0 -0 -0 -0 -0 -0 -0 0 0 -0 -0 -0 -0 -0 -0 0 0 0 0 0 0 0 0 -0 -0 -1 -1 -1 -2 -2 -2 -2 -2 -2 -1 -1 -1 -1 -1 -1 -1 -0 -0 -0 -0 -0 -0 -0 -1 nan
nan -0 -0 -0 -0 -0 -0 -0 -0 -0 -0 -0 -0 -0 -0 -0 -0 -0 -0 -0 -0 -0 -0 -0 -0 -0 -0 0 0 -0 -0 -0 -1 -1 -0 -0 0 0 0 0 0 0 0 0 0 -0 -1 -1 -1 -2 -2 -2 -2 -2 -2 -1 -1 -1 -1 -1 -1 -1 -1 -0 -0 -0 -0 -0 nan
nan -0 -0 -0 -0 -0 -0 -0 -0 -0 -0 -0 -0 -0 -0 -0 -0 -0 -0 -0 -0 -0 -0 -0 -0 -1 -0 -0 -0 -0 -0 -0 -1 -1 -1 -1 -1 -0 0 0 0 0 0 0 0 0 0 -0 -1 -1 -1 -1 -2 -2 -2 -2 -2 -1 -1 -1 -1 -1 -1 -1 -0 -0 -0 -0 nan
nan -0 -0 -0 -0 -0 -0 -0 -0 -0 -0 -0 -0 -0 -0 -0 -0 -0 -1 -1 -1 -0 -0 -1 -1 -1 -1 -1 -1 -1 -1 -1 -1 -1 -1 -1 -1 -1 -1 -0 -0 -0 0 0 0 0 0 0 0 -0 -1 -1 -1 -2 -2 -2 -2 -2 -2 -1 -1 -1 -1 -1 -1 -1 -0 -0 nan
nan -0 -0 -0 -0 -0 -0 -0 -0 -0 -0 -0 -0 -0 -0 -0 -0 -0 -1 -1 -1 -1 -1 -1 -1 -1 -1 -1 -1 -1 -1 -1 -1 -1 -1 -1 -1 -1 -1 -1 -1 -0 -0 -0 -0 0 0 0 0 0 0 -0 -1 -1 -1 -2 -2 -2 -2 -2 -2 -2 -1 -1 -1 -1 -1 -0 nan
nan -0 -0 -0 -0 0 0 0 -0 -0 -0 -0 -0 -0 -0 -0 -0 -0 -1 -1 -1 -1 -1 -1 -1 -1 -1 -1 -1 -1 -1 -1 -1 -1 -1 -1 -1 -1 -1 -1 -1 -1 -1 -1 -1 -0 -0 -0 -0 0 1 1 0 -0 -1 -1 -1 -2 -2 -2 -2 -2 -2 -2 -1 -1 -1 -1 nan
nan -0 -0 -0 -0 -0 -0 0 -0 -0 -0 -0 -0 -0 -0 -0 -0 -0 -0 -1 -1 -1 -1 -1 -1 -1 -1 -1 -1 -1 -1 -1 -1 -1 -1 -1 -1 -1 -1 -1 -1 -1 -1 -1 -1 -1 -1 -1 -0 -0 -0 0 1 0 -0 -0 -1 -1 -1 -2 -2 -2 -2 -2 -2 -2 -1 -1 nan
nan -0 -0 -0 -0 -0 -0 -0 -0 -0 -0 -0 -0 -0 -0 -0 -0 -0 -0 -1 -1 -1 -1 -1 -1 -1 -1 -1 -1 -1 -1 -1 -1 -1 -1 -1 -1 -1 -1 -1 -1 -1 -1 -1 -1 -1 -1 -1 -1 -1 -1 -0 -0 -0 -0 -0 -0 -0 -1 -1 -1 -2 -2 -2 -2 -2 -2 -1 nan
nan -0 -0 -0 -0 -0 -0 -0 -0 -0 -0 -0 -0 -0 -0 -0 -0 -0 -0 -0 -1 -1 -1 -1 -1 -1 -1 -1 -1 -1 -1 -1 -1 -1 -1 -1 -1 -1 -1 -1 -1 -1 -1 -1 -1 -1 -1 -0 -1 -0 -0 -0 -1 -1 -1 -0 -0 -0 -0 -0 -1 -1 -1 -2 -2 -2 -2 -2 nan
nan -0 -0 -0 -0 -0 -0 -0 -0 -0 -0 -0 -0 -0 -0 -0 -0 -0 -0 -0 -1 -1 -1 -1 -1 -1 -1 -1 -1 -1 -1 -1 -1 -1 -1 -1 -1 -1 -1 -1 -1 -1 -1 -0 -1 -1 -1 -1 -0 -0 0 0 -0 -1 -1 -1 -1 -0 -0 -0 -0 -0 -1 -1 -1 -2 -2 -2 nan
nan -0 -0 -0 -0 -0 -0 -0 -0 -0 -0 -0 -0 -0 -0 -0 -0 -0 -0 -0 -0 -1 -1 -1 -1 -1 -1 -1 -1 -1 -1 -1 -1 -1 -1 -1 -1 -1 -1 -1 -1 -1 -1 -1 -1 -1 -1 -1 -0 -0 0 0 0 -0 -1 -1 -1 -1 -1 -1 -0 -0 -0 -0 -1 -1 -1 -2 nan
nan -0 -0 -0 -0 -0 -0 -0 -0 -0 -0 -0 -0 -0 -0 -0 -0 -0 -0 -0 -1 -1 -1 -1 -1 -1 -0 -1 -1 -1 -1 -1 -1 -1 -1 -1 -1 -1 -1 -1 -1 -1 -1 -0 -0 -1 -1 -1 -1 -0 -0 -0 -0 -0 -0 -1 -1 -1 -1 -1 -0 -0 -0 -0 -0 -1 -1 -1 nan
nan -0 -0 -0 -0 -0 -0 -0 -0 -0 -0 -0 -1 -1 -0 -0 -0 -0 -0 -1 -1 -1 -1 -1 -1 -1 -0 -0 -0 -0 -1 -1 -1 -1 -1 -1 -1 -1 -1 -1 -1 -1 -0 -0 -0 -0 -1 -0 -0 -0 -0 -0 -1 -1 -1 -1 -1 -1 -1 -1 -1 -0 -0 -0 -0 -0 -0 -1 nan
nan -0 -0 -0 -0 -0 -0 -0 -0 -0 -0 -0 -1 -1 -1 -1 -1 -0 -0 -0 -1 -1 -1 -1 -1 -1 -1 -1 -1 -1 -0 -0 -1 -1 -0 -0 -1 -1 -1 -1 -1 -1 -0 -0 -0 -0 -0 -0 -0 0 0 -1 -1 -1 -1 -1 -1 -1 -1 -1 -1 -1 -0 -0 -0 -0 -0 -0 nan
nan -0 -0 -0 -0 -0 -0 -0 -0 -0 -0 -0 -0 -0 -1 -1 -1 -1 -0 -0 -0 -1 -1 -1 -1 -1 -1 -1 -1 -1 -0 -0 -0 -1 -0 -0 -0 -1 -1 -1 -1 -1 -1 -0 -0 -0 -0 -0 0 1 1 -0 -1 -1 -2 -2 -2 -2 -1 -1 -1 -1 -0 -0 -0 -0 -0 -0 nan
nan -0 -0 -0 -0 -0 -0 -0 -0 -0 -0 -0 -0 -0 -0 -1 -0 -0 -0 -0 -0 -0 -0 -1 -1 -1 -1 -1 -1 -1 -1 -0 -0 -0 -0 -0 -0 -0 -1 -1 -1 -1 -1 -0 -0 -0 -0 -0 0 1 1 1 -0 -1 -2 -2 -2 -2 -2 -2 -2 -1 -1 -0 -0 -0 -1 -0 nan
nan -0 -0 -0 -0 -0 -0 -0 -0 -0 -0 -0 -0 -0 -0 -0 -0 -0 -0 -0 -0 -0 -0 -0 -1 -0 -0 -1 -1 -1 -1 -1 -0 -0 -0 -0 -0 -0 -1 -1 -1 -1 -1 -0 -0 -0 0 -0 0 1 1 1 0 -0 -1 -2 -2 -2 -2 -2 -2 -2 -2 -1 -0 -1 -1 -1 nan
nan nan nan nan nan nan nan nan nan nan nan nan nan nan nan nan nan nan nan nan nan nan nan nan nan nan nan nan nan nan nan nan nan nan nan nan nan nan nan nan nan nan nan nan nan nan nan nan nan nan nan nan nan nan nan nan nan nan nan nan nan nan nan nan nan nan nan nan nan
Wind_Speed
18 19 19 20 20 20 20 21 21 21 21 22 22 22 22 22 22 22 22 22 23 23 24 24 24 25 25 24 24 24 23 23 22 22 22 21 21 22 22 22 22 23 23 23 23 23 23 23 23 23 22 21 19 18 18 17 16 15 13 12 10 10 10 10 9 9 8 8 8
17 18 18 18 19 19 19 20 20 20 21 21 21 21 21 21 21 21 21 21 21 22 22 22 23 23 24 24 24 24 24 23 23 22 22 21 21 21 21 21 21 22 22 22 23 23 23 23 22 22 22 22 21 20 19 18 18 17 16 14 13 11 10 10 10 10 10 10 9
16 17 17 17 18 18 18 19 19 19 19 20 20 20 20 20 20 20 20 20 20 20 20 21 21 22 22 23 23 23 24 23 23 22 22 22 21 21 21 21 21 21 21 21 22 22 22 22 22 21 21 21 21 20 19 19 18 18 17 17 16 14 12 11 10 9 10 10 11
15 16 16 17 17 17 17 18 18 18 18 19 19 19 19 19 20 20 20 20 20 20 20 20 20 21 21 21 22 22 23 23 23 23 23 22 22 22 22 21 21 21 21 21 21 21 21 21 21 21 21 21 20 20 20 19 18 18 17 17 17 16 15 14 12 11 10 10 11
14 15 15 16 16 16 16 16 17 17 17 17 17 18 18 19 19 19 19 20 20 20 21 21 20 20 20 20 21 21 21 22 22 23 23 23 23 23 22 22 22 21 21 20 20 20 21 21 21 21 21 20 20 20 19 19 18 18 17 17 16 16 16 16 15 14 12 11 10
13 13 14 15 15 15 15 15 15 16 16 16 16 17 17 18 18 19 19 20 20 21 21 21 21 21 21 21 20 20 21 21 21 22 23 23 23 23 23 23 23 22 21 21 20 20 20 20 21 21 21 20 20 19 19 18 18 17 17 16 16 16 15 15 16 16 15 14 12
12 12 12 13 14 14 14 14 14 15 15 15 16 16 17 17 17 18 18 19 20 20 21 22 22 22 22 22 21 21 21 21 21 21 22 22 23 23 23 23 23 23 22 22 21 21 20 20 20 20 20 20 20 20 19 19 18 17 17 16 16 15 15 15 15 15 16 15 15
11 11 12 12 13 13 13 13 14 14 14 14 15 16 16 16 17 17 17 18 19 20 21 21 22 22 23 23 22 22 22 22 22 22 22 22 22 22 23 23 23 23 23 23 22 22 21 21 20 20 20 20 20 20 20 19 19 18 17 17 16 16 15 15 14 14 15 15 15
11 11 12 12 13 13 14 14 14 14 14 14 14 15 15 16 16 16 17 17 18 19 20 20 21 22 22 22 23 23 23 23 23 23 22 22 22 22 22 22 23 23 23 23 23 23 22 22 21 21 20 20 20 20 20 20 19 19 18 17 16 16 15 15 14 14 14 14 15
11 12 12 13 14 14 15 15 15 15 15 15 15 15 15 16 16 16 16 17 17 18 18 19 20 21 21 22 22 23 23 24 24 24 23 23 23 22 22 22 22 22 22 23 23 23 23 23 22 21 21 20 20 20 20 20 20 19 19 18 17 17 16 15 15 14 14 14 14
13 13 14 14 15 15 16 16 16 16 16 16 16 16 16 16 16 17 17 17 17 17 17 18 19 20 20 21 21 22 22 23 23 24 24 24 23 23 22 22 21 21 21 22 22 23 23 23 23 22 22 21 21 20 20 20 19 19 19 19 19 18 17 16 15 15 14 14 14
14 14 15 15 16 16 17 17 18 18 18 19 19 19 18 18 18 18 18 18 17 17 18 18 18 19 19 20 20 21 21 22 22 23 23 24 23 23 23 22 21 21 20 20 21 21 22 22 23 23 23 22 22 22 21 20 20 20 19 20 19 19 19 18 17 16 15 15 14
15 15 16 16 17 18 18 19 19 20 20 20 21 21 21 20 20 20 20 19 19 19 19 19 19 19 19 19 19 19 20 20 21 21 22 22 23 23 23 23 22 21 21 20 20 20 20 21 21 22 22 23 23 23 22 22 21 20 20 20 20 20 20 20 19 18 17 16 16
16 16 17 17 18 19 19 20 21 21 21 22 22 22 22 22 22 22 22 22 21 21 21 20 20 20 19 19 19 19 19 19 20 20 20 21 21 22 22 22 22 22 21 21 21 20 20 20 20 21 21 22 22 23 23 23 22 22 21 21 20 20 20 21 20 20 20 19 18
16 17 18 18 19 20 21 21 22 22 23 23 23 23 23 23 23 24 24 23 23 23 23 22 22 21 21 20 19 19 19 19 19 19 19 19 20 21 21 22 22 22 22 22 21 21 21 21 20 20 20 21 21 21 22 22 23 22 22 22 21 21 21 21 21 21 21 21 20
16 17 18 19 20 21 22 22 23 23 24 24 24 24 24 24 24 25 25 25 25 25 24 24 23 23 22 22 21 20 20 19 19 19 19 19 19 19 20 20 21 22 22 22 22 22 21 21 21 21 21 21 21 21 21 21 22 22 22 22 22 21 21 21 21 21 21 21 21
17 18 19 20 20 21 22 23 24 24 25 25 25 26 26 26 25 25 25 25 26 25 25 25 25 25 24 23 22 22 21 20 20 19 19 18 18 18 18 19 20 20 21 22 22 22 22 22 22 22 22 22 22 22 21 21 21 22 22 23 23 22 22 21 21 21 21 21 22
17 18 19 20 21 22 22 23 24 25 25 26 26 26 26 26 26 26 26 26 26 26 26 26 26 25 25 24 24 23 22 21 21 20 19 19 18 18 18 18 18 19 20 21 22 22 23 23 23 23 23 23 23 23 22 22 22 22 22 22 23 23 23 22 22 21 21 21 21
18 19 20 21 21 22 23 24 24 25 25 26 26 26 27 27 27 27 26 26 26 26 27 27 26 26 26 25 25 24 24 23 22 21 20 20 19 18 18 18 18 18 18 19 20 21 22 23 24 24 24 24 24 24 24 24 23 23 23 23 23 23 23 23 22 22 22 21 21
19 20 21 22 22 23 24 24 25 25 26 26 26 26 26 26 26 26 26 26 26 27 27 27 27 27 26 26 26 25 25 24 24 23 22 22 21 20 19 19 18 18 18 18 19 20 21 23 24 24 25 25 25 25 25 25 24 24 24 24 24 23 23 23 23 23 22 22 22
20 21 22 23 23 24 24 25 25 25 26 26 26 26 26 26 26 26 26 26 26 26 26 26 27 27 27 27 27 26 26 26 25 25 24 24 23 22 21 21 20 19 18 18 19 20 21 22 23 24 25 26 26 26 27 26 26 26 25 25 24 24 24 24 24 23 23 23 22
21 22 23 23 24 24 24 25 25 25 25 25 25 25 25 25 25 25 25 25 26 26 26 26 26 27 27 27 27 27 27 27 26 26 25 25 25 24 23 23 22 21 20 19 19 19 20 21 22 23 24 25 26 26 27 27 27 27 27 26 25 25 25 24 24 24 24 24 23
22 23 23 23 24 24 24 24 25 25 25 24 24 24 24 24 24 24 24 25 25 26 26 26 27 27 27 27 27 28 28 28 28 27 27 26 26 26 25 25 24 24 23 22 21 21 21 21 21 22 23 24 25 26 26 27 28 28 28 28 27 26 26 25 25 25 25 25 24
22 23 23 23 23 24 24 24 24 23 23 23 23 23 23 23 23 24 24 25 25 26 26 27 27 27 27 28 28 28 28 29 29 29 28 28 28 27 27 27 26 25 25 24 23 22 22 22 22 23 23 24 24 25 26 26 27 28 29 29 29 28 28 27 26 26 25 25 25
23 23 23 23 23 23 23 22 22 22 22 22 22 22 22 23 23 24 24 25 26 26 27 27 27 28 28 28 28 29 29 30 30 30 30 30 30 30 29 29 28 27 27 26 25 24 23 23 23 24 25 25 25 26 26 26 27 28 29 30 30 30 30 29 28 27 27 26 26
22 22 22 22 22 22 21 21 21 21 21 21 21 22 22 23 24 24 25 25 26 26 27 27 28 28 29 29 29 30 30 30 31 31 31 32 32 31 31 31 31 30 29 28 27 26 25 24 23 24 25 26 27 27 27 27 27 27 28 29 30 31 31 31 30 29 28 27 27
22 22 22 21 21 20 20 20 20 20 20 21 21 22 23 23 24 25 25 26 27 27 27 28 28 29 29 29 30 30 30 31 31 31 32 32 32 32 33 32 32 32 32 31 30 29 27 26 25 24 24 25 27 27 28 28 28 28 28 29 29 30 31 32 32 31 30 29 29
21 21 21 20 19 19 19 19 19 20 20 21 22 22 23 24 25 25 26 27 27 28 28 28 29 29 29 30 30 30 31 31 31 31 32 32 32 33 33 33 33 33 33 33 32 32 31 29 28 26 25 25 26 27 28 29 29 29 29 29 29 30 30 31 32 32 32 31 31
21 20 20 19 18 18 18 19 19 20 21 21 22 23 24 24 25 26 26 27 28 28 28 29 29 29 30 30 30 31 31 31 31 32 32 32 33 33 33 34 34 34 34 34 34 34 34 33 31 30 28 27 27 27 28 29 29 30 30 30 29 30 30 31 31 32 32 33 32
20 19 19 18 18 18 19 19 20 21 21 22 23 24 25 25 26 26 27 28 28 28 29 29 30 30 30 30 31 31 31 32 32 32 32 33 33 33 34 34 34 34 34 34 35 35 35 35 35 33 32 30 29 28 28 29 29 30 30 30 30 30 30 30 31 31 32 33 33
19 19 19 19 19 19 19 20 21 22 22 23 24 25 25 26 27 27 28 28 29 29 30 30 30 31 31 31 31 32 32 32 32 33 33 33 34 34 34 34 34 34 34 35 35 35 36 36 36 36 35 34 33 31 30 30 30 30 30 30 30 30 30 30 30 31 31 32 33
18 18 19 19 19 20 20 21 22 23 23 24 25 26 26 27 28 28 29 29 30 30 31 31 31 32 32 32 33 33 33 33 33 34 34 34 35 35 35 35 35 35 35 35 35 35 36 36 36 37 37 37 36 35 34 33 31 31 30 30 30 30 30 30 30 31 31 32 32
18 19 19 19 20 21 21 22 23 24 25 25 26 27 28 28 29 29 30 30 31 31 32 32 33 33 34 34 34 34 34 34 34 35 35 35 35 36 36 36 35 35 35 35 35 36 36 36 36 36 37 37 37 37 37 36 35 33 32 31 30 30 30 30 30 30 30 31 32
18 19 19 20 21 21 22 23 24 25 26 27 27 28 29 29 30 30 31 31 32 32 33 33 34 34 35 35 35 36 36 36 36 36 36 36 36 36 37 37 36 36 35 35 35 36 36 36 36 36 36 37 37 38 38 38 38 36 35 33 32 31 30 29 29 30 30 30 31
19 19 20 21 22 22 23 24 25 26 27 28 28 29 29 30 30 31 31 32 32 33 33 34 34 35 35 36 36 36 37 37 37 37 37 37 37 37 37 37 37 36 36 36 36 36 36 36 36 36 36 37 37 38 38 39 39 38 37 36 34 32 31 30 29 29 29 30 30
19 20 21 22 23 24 24 25 26 27 28 28 29 30 30 31 31 31 32 32 33 34 34 35 35 36 36 36 37 37 38 38 38 38 38 38 38 38 39 38 38 37 36 36 36 36 36 36 36 36 36 37 37 38 38 38 39 39 39 38 37 35 33 31 30 29 29 29 29
20 21 22 23 24 25 25 26 27 28 28 29 29 30 30 31 31 32 32 33 34 35 35 36 36 37 37 37 38 38 38 39 39 39 39 39 39 39 40 40 39 38 37 37 37 37 37 36 36 36 36 36 37 37 37 38 38 39 39 39 39 38 36 34 32 31 30 29 29
21 22 23 24 25 25 26 27 27 28 29 29 30 30 30 31 32 32 33 33 34 35 36 37 37 38 38 38 39 39 39 39 40 40 40 40 40 40 41 41 40 39 38 38 37 37 37 37 36 36 36 36 36 36 37 37 37 38 38 39 39 39 38 36 34 33 31 30 29
21 22 23 24 25 26 27 27 28 28 29 29 30 30 31 31 32 33 33 34 35 36 37 38 38 39 39 39 40 41 41 41 41 41 41 41 41 41 41 41 41 40 39 38 38 37 37 37 36 36 35 35 35 35 36 36 37 37 38 38 39 39 39 38 36 35 33 31 30
22 23 24 25 25 26 27 27 28 28 29 29 30 30 31 32 33 33 34 35 36 37 38 39 40 40 40 41 41 42 42 42 42 42 42 42 42 41 41 41 41 41 40 39 38 37 37 36 36 35 34 34 34 34 35 35 36 36 37 37 38 38 38 38 37 36 35 33 31
22 23 24 25 26 26 27 28 28 29 29 29 30 31 32 33 34 34 35 36 37 38 39 40 41 41 41 42 42 43 43 43 43 42 42 42 42 42 41 41 41 41 40 39 38 37 36 36 35 34 34 33 33 33 33 33 34 35 36 37 37 37 37 38 38 37 37 35 34
Wind_Direction
25 25 25 24 23 23 23 23 22 21 21 20 20 19 19 19 19 18 18 16 16 15 14 13 13 12 10 10 9 9 9 9 9 8 8 8 9 10 11 11 11 11 11 12 13 14 15 16 15 14 12 10 6 1 356 353 353 355 356 356 355 348 338 330 322 312 300 286 271
23 23 23 22 22 21 21 20 20 19 18 17 17 16 16 16 16 16 16 15 15 14 13 12 10 9 8 7 6 6 6 6 6 5 5 5 5 6 6 7 7 7 7 8 8 10 11 12 13 12 12 11 10 7 3 357 353 351 351 352 354 353 348 341 333 326 318 310 298
21 20 20 19 19 18 18 18 17 17 16 15 14 13 12 12 12 13 13 12 12 11 10 10 8 7 6 5 4 3 3 3 3 3 3 3 3 3 3 3 3 3 3 4 4 4 5 6 7 8 9 10 10 9 8 4 359 354 350 348 348 349 349 348 344 339 333 327 321
19 18 17 16 16 15 15 15 15 14 13 12 11 10 9 8 9 9 8 8 7 7 7 7 6 5 4 4 2 1 1 0 0 0 1 1 1 1 1 0 360 360 360 360 360 360 360 0 1 2 4 5 6 7 8 7 5 1 355 350 346 344 344 343 342 340 337 334 331
18 16 15 14 13 13 13 12 12 11 10 9 8 7 6 5 5 5 4 3 3 3 3 3 3 3 3 2 1 360 359 358 357 358 358 359 359 359 359 358 358 358 357 357 356 356 355 355 355 356 358 359 1 2 4 5 5 4 0 356 350 346 341 338 336 335 335 333 331
19 17 15 13 13 12 11 10 9 8 7 6 5 4 4 3 3 2 1 1 0 360 359 359 359 359 359 359 359 359 358 357 356 355 355 356 356 356 356 356 356 356 355 355 354 353 352 351 351 351 351 352 354 355 357 359 1 1 0 358 354 350 345 339 334 332 330 329 328
20 18 16 14 13 11 10 9 8 7 5 4 3 3 3 2 1 0 359 358 357 357 356 356 355 355 355 355 356 356 356 356 356 355 354 354 353 353 353 353 353 352 352 352 352 352 351 350 349 348 347 347 347 348 349 351 354 355 356 355 354 352 348 343 337 332 328 325 324
19 18 17 16 14 12 11 10 8 6 5 3 3 3 3 2 1 360 358 356 356 356 355 354 354 353 352 352 352 353 353 354 354 354 353 352 351 351 350 349 349 349 349 349 349 349 350 349 348 347 345 345 344 344 344 344 346 347 349 349 350 349 348 345 340 335 330 325 321
19 18 17 16 15 14 12 11 9 7 6 5 4 4 4 3 2 0 359 358 357 356 355 354 352 351 350 349 349 349 349 350 351 351 351 351 350 349 348 347 347 346 345 345 346 346 346 347 347 346 345 344 343 341 340 339 339 340 341 342 343 344 344 342 340 336 332 327 322
19 18 17 16 14 13 12 10 9 8 7 6 6 5 5 5 3 3 2 1 359 357 355 354 352 351 350 348 348 347 347 347 347 347 348 348 348 348 347 347 346 345 344 343 342 342 342 343 344 344 344 343 342 341 339 337 336 335 335 335 336 337 338 337 337 335 332 328 322
15 14 13 12 11 10 8 7 6 5 5 5 4 4 4 4 4 3 3 2 360 357 356 355 353 352 350 349 348 347 346 345 344 344 344 344 344 344 344 344 343 343 342 341 340 339 339 339 340 340 340 340 340 339 338 337 335 334 332 332 331 331 331 331 331 331 330 328 324
10 9 7 6 5 4 3 2 1 1 1 1 1 0 0 0 1 0 360 359 358 356 356 355 354 352 351 350 348 347 345 344 343 342 341 341 341 340 340 340 340 339 339 338 338 337 337 336 336 336 336 337 337 337 337 336 335 333 331 330 328 327 327 327 326 326 326 326 324
4 3 1 0 359 358 358 357 356 356 356 356 356 356 356 356 355 355 355 354 354 353 353 353 352 351 350 349 348 346 345 343 342 341 340 339 338 337 336 336 335 335 335 334 334 334 334 333 333 333 333 333 333 333 333 333 333 332 331 329 327 326 326 325 324 323 323 323 322
358 357 356 355 354 354 353 353 352 352 353 353 352 352 352 351 350 350 350 349 349 349 349 348 348 347 347 346 345 344 343 342 341 339 338 337 336 335 334 333 332 332 332 331 331 330 329 329 328 329 329 329 329 329 329 329 330 329 329 328 327 325 324 323 323 322 321 320 320
353 352 351 351 350 350 349 349 349 349 349 349 349 348 348 348 347 346 346 345 345 344 344 344 344 344 343 343 342 341 340 339 338 337 336 335 334 333 332 331 330 329 328 328 327 326 325 324 323 323 324 324 324 324 324 324 325 325 325 325 324 323 322 322 321 320 320 319 318
348 348 347 347 347 346 346 346 346 346 346 346 345 345 345 344 343 342 342 341 341 341 341 340 341 341 341 340 339 339 338 337 335 335 334 333 332 331 330 329 327 326 325 325 324 323 322 321 320 319 318 318 318 318 318 319 319 320 320 320 320 320 320 319 318 318 318 317 317
344 343 343 343 343 343 343 343 343 343 343 343 342 342 341 341 340 339 339 338 338 338 338 338 338 338 338 338 337 337 336 336 335 334 332 331 330 329 327 326 325 324 322 321 320 319 318 317 317 315 314 313 313 313 313 313 313 314 314 315 315 315 316 316 316 315 315 315 315
340 340 340 340 340 340 340 340 340 340 340 340 339 338 337 337 337 336 336 335 335 335 335 335 335 336 336 336 336 336 336 335 335 334 332 331 329 327 325 323 322 320 319 318 316 315 315 314 313 312 311 310 309 309 308 308 308 308 308 309 310 310 311 312 312 312 312 312 312
337 337 337 338 338 338 338 338 338 337 337 336 335 335 334 333 333 333 333 332 332 333 333 333 333 334 334 334 335 334 334 334 334 334 332 331 329 327 324 322 320 318 316 314 313 312 311 311 310 309 308 307 306 306 305 304 304 304 303 304 304 305 306 307 307 308 308 308 308
335 336 336 336 336 336 336 336 335 335 334 333 332 331 330 330 329 330 330 330 330 330 331 331 332 332 332 332 333 333 333 333 333 333 332 331 330 328 326 323 321 318 315 312 310 308 307 307 306 306 305 305 304 303 302 302 301 300 300 300 300 300 301 302 303 304 304 304 304
334 334 334 335 335 335 335 334 333 332 330 329 328 327 327 327 327 327 328 328 328 329 329 330 330 330 330 330 331 331 331 331 331 331 331 330 330 328 327 325 323 321 318 314 310 307 305 303 302 302 302 301 301 301 301 300 299 299 298 297 297 297 297 298 298 299 300 300 300
333 333 333 333 333 333 332 331 330 328 327 326 325 325 325 325 325 326 326 326 327 327 328 328 328 329 329 329 329 329 329 329 329 329 329 328 328 327 327 326 324 323 321 318 313 309 305 302 300 299 298 298 298 298 298 299 299 298 297 296 295 295 295 295 295 296 296 296 296
331 331 331 331 330 329 328 327 326 325 324 323 323 323 323 323 324 324 324 325 325 326 326 326 327 327 328 328 327 327 326 326 326 325 325 325 326 325 325 325 324 323 323 321 318 314 310 306 302 299 297 295 295 295 295 296 297 297 297 296 295 294 293 293 293 293 293 293 293
329 328 328 327 327 326 324 323 322 321 321 321 321 321 322 322 323 323 323 324 324 324 324 325 325 325 326 325 325 325 325 324 324 323 323 323 323 323 323 323 323 323 323 322 320 318 314 310 307 303 300 297 295 294 293 293 294 295 296 296 296 295 293 292 292 291 291 291 291
325 325 324 324 323 322 321 320 319 319 319 320 320 321 321 321 322 322 323 323 323 323 324 324 324 324 323 323 323 323 323 323 322 322 321 321 320 320 321 321 321 321 321 321 320 319 316 313 309 306 303 300 298 295 294 292 292 292 293 294 294 294 294 293 291 290 290 289 289
322 321 320 320 319 319 318 318 318 318 319 319 319 320 320 321 321 322 322 323 323 323 322 322 322 322 322 321 321 321 321 321 321 321 320 319 319 318 318 319 319 319 319 319 319 318 316 314 311 307 304 302 299 297 295 293 292 290 290 291 291 292 293 293 292 291 290 288 288
318 317 317 316 317 317 317 317 317 317 318 318 318 319 319 320 321 321 321 321 321 321 321 321 320 320 320 320 320 320 319 319 319 319 319 318 318 317 317 317 317 317 317 317 317 316 316 314 312 309 305 302 299 297 296 294 292 291 289 289 289 289 290 291 291 291 290 288 287
315 314 314 314 315 315 316 316 316 316 316 317 317 318 318 319 319 319 319 319 319 319 319 318 318 318 318 318 318 318 317 317 317 317 316 316 316 316 315 315 315 315 315 315 315 315 314 313 312 310 307 304 300 297 295 294 293 291 290 288 288 287 287 288 289 289 289 289 288
313 312 313 313 314 314 315 315 314 314 315 315 316 316 317 317 317 317 316 316 316 316 316 316 316 316 316 316 316 315 315 315 315 315 314 314 314 314 313 313 313 313 313 314 314 313 313 312 311 310 309 306 302 299 296 294 293 292 290 289 287 286 286 286 286 286 287 287 287
311 311 311 312 313 313 313 313 313 313 313 313 314 314 314 314 314 314 314 314 314 314 314 314 314 314 314 314 314 313 313 313 313 313 313 312 312 312 311 311 311 311 312 312 312 312 312 311 311 310 309 307 305 301 298 296 294 292 291 289 288 286 285 285 284 284 284 285 286
310 310 310 310 311 311 311 311 311 311 311 311 311 312 312 312 312 312 312 313 313 313 313 313 313 313 312 312 312 312 311 311 311 311 311 311 310 310 309 309 309 309 310 310 310 310 310 310 310 310 309 308 306 303 301 298 296 294 292 290 289 287 285 284 283 283 282 283 283
308 308 308 308 308 309 309 309 309 309 309 309 310 310 310 310 311 311 311 312 312 312 312 312 312 312 312 312 311 311 310 310 310 310 309 309 309 308 308 307 307 307 308 308 308 308 308 308 308 308 308 308 306 305 302 300 298 296 294 292 290 288 286 284 283 282 281 281 281
306 306 306 306 306 307 308 308 308 308 308 308 308 309 309 310 310 311 311 311 312 312 312 312 312 312 312 312 311 311 310 310 309 309 308 308 307 307 306 306 305 306 306 306 306 306 306 306 306 306 306 306 305 304 303 302 300 298 295 293 291 289 287 285 283 282 280 280 279
305 305 305 305 305 306 306 307 307 307 307 308 308 308 309 310 310 311 311 312 312 312 312 312 312 312 312 311 311 311 310 309 309 308 308 307 307 306 305 304 304 304 305 305 304 304 304 304 304 304 304 304 303 303 302 302 300 299 297 295 293 291 289 286 284 282 281 279 278
305 305 305 305 306 306 306 307 307 307 307 307 308 309 309 310 310 311 312 312 312 312 311 311 311 311 311 311 311 310 310 309 309 308 308 307 307 306 305 304 304 304 303 303 303 303 303 303 302 302 302 302 301 300 300 300 300 299 298 296 295 293 291 289 286 284 281 280 278
305 305 305 306 306 306 307 307 307 307 307 308 308 309 310 310 311 311 312 312 312 312 311 311 311 311 310 310 310 310 309 309 308 308 307 307 307 306 305 304 304 303 303 303 303 302 302 302 301 301 301 300 299 298 298 298 298 298 297 296 295 294 292 291 289 286 283 281 278
307 306 306 307 307 307 307 307 307 307 308 308 309 309 310 310 311 311 312 312 312 312 312 311 311 311 310 310 310 309 309 308 308 308 307 307 307 306 305 305 304 304 303 303 302 302 302 301 301 300 300 299 298 297 297 296 296 296 296 295 295 294 293 292 290 288 285 282 280
308 308 307 307 307 307 307 308 308 308 308 309 309 310 310 311 312 312 313 313 313 313 312 312 311 311 311 311 310 309 308 308 307 307 307 307 306 306 306 305 304 304 303 303 302 302 301 300 300 299 299 298 297 296 295 295 294 294 294 294 294 293 293 292 291 289 287 284 282
309 308 308 308 307 307 308 307 308 308 309 309 310 310 311 312 312 313 314 314 314 313 313 312 312 312 311 311 310 309 308 307 307 307 306 306 306 306 305 304 304 303 303 303 302 301 300 300 299 298 297 296 295 295 294 294 293 292 292 292 292 292 292 292 291 290 288 286 283
309 308 308 308 307 307 307 307 308 308 309 309 310 311 312 313 313 314 314 314 314 314 313 313 312 312 311 310 310 309 308 307 307 306 306 305 305 305 304 303 303 302 302 302 301 300 299 298 297 296 296 295 294 293 293 293 292 291 291 290 290 291 291 291 290 290 288 286 284
309 308 308 307 307 307 307 307 307 308 309 310 311 312 312 313 314 314 314 314 314 314 313 313 312 311 311 310 309 308 307 307 306 306 305 305 304 303 303 302 302 301 301 300 300 299 298 297 296 295 294 294 293 293 292 292 291 290 290 290 290 290 290 290 290 289 288 287 285
Height
1477 1477 1476 1475 1475 1474 1473 1473 1472 1472 1471 1470 1470 1469 1468 1468 1467 1467 1466 1466 1465 1464 1464 1463 1462 1462 1461 1461 1460 1459 1459 1458 1457 1457 1456 1455 1455 1454 1453 1452 1452 1451 1450 1450 1449 1448 1448 1447 1447 1446 1446 1445 1444 1444 1443 1442 1442 1441 1441 1440 1439 1439 1438 1438 1438 1438 1438 1438 1437
1478 1477 1477 1476 1475 1475 1474 1473 1473 1472 1472 1471 1470 1470 1469 1468 1468 1467 1467 1466 1466 1465 1465 1464 1464 1463 1462 1461 1461 1460 1459 1459 1458 1458 1457 1456 1455 1455 1454 1453 1452 1452 1451 1450 1450 1449 1448 1448 1447 1447 1447 1446 1445 1445 1444 1443 1442 1442 1441 1440 1440 1439 1439 1438 1438 1438 1438 1438 1438
1478 1478 1477 1477 1476 1475 1475 1474 1473 1473 1472 1472 1471 1470 1470 1469 1468 1468 1467 1467 1466 1466 1466 1465 1464 1464 1463 1462 1462 1461 1460 1459 1459 1458 1457 1457 1456 1455 1455 1454 1453 1452 1452 1451 1450 1449 1449 1448 1448 1447 1447 1447 1446 1445 1445 1444 1443 1442 1442 1441 1440 1440 1439 1439 1439 1438 1438 1438 1438
1479 1478 1477 1477 1476 1476 1475 1474 1474 1473 1473 1472 1472 1471 1470 1470 1469 1468 1468 1467 1467 1466 1466 1465 1465 1464 1464 1463 1462 1462 1461 1460 1459 1459 1458 1457 1457 1456 1455 1454 1454 1453 1452 1452 1451 1450 1449 1449 1448 1447 1447 1447 1446 1445 1445 1444 1443 1442 1442 1441 1441 1440 1440 1439 1439 1439 1438 1438 1438
1479 1478 1478 1477 1477 1476 1476 1475 1474 1474 1473 1473 1472 1472 1471 1470 1470 1469 1468 1468 1467 1466 1466 1465 1465 1464 1464 1463 1463 1462 1462 1461 1460 1459 1458 1457 1457 1456 1456 1455 1454 1453 1453 1452 1451 1451 1450 1449 1448 1447 1447 1446 1446 1445 1445 1444 1443 1443 1442 1441 1441 1440 1440 1440 1439 1439 1438 1438 1438
1479 1478 1478 1477 1477 1477 1476 1475 1475 1474 1474 1473 1473 1472 1471 1471 1470 1469 1469 1468 1467 1467 1466 1466 1465 1464 1464 1463 1463 1462 1462 1461 1460 1459 1459 1458 1457 1457 1456 1455 1454 1454 1453 1452 1452 1451 1450 1449 1448 1448 1447 1446 1446 1445 1444 1444 1443 1442 1442 1441 1441 1440 1440 1440 1439 1439 1439 1438 1438
1479 1479 1478 1477 1477 1477 1476 1476 1475 1475 1474 1473 1473 1472 1472 1471 1470 1469 1469 1468 1468 1467 1466 1466 1465 1464 1464 1463 1462 1462 1462 1461 1460 1460 1459 1458 1457 1457 1456 1455 1455 1454 1453 1453 1452 1452 1451 1450 1449 1448 1447 1446 1446 1445 1444 1443 1443 1442 1442 1441 1441 1440 1440 1440 1439 1439 1439 1438 1438
1479 1479 1478 1478 1477 1477 1476 1476 1475 1475 1474 1474 1473 1472 1472 1471 1470 1470 1469 1468 1468 1467 1466 1466 1465 1464 1463 1463 1462 1462 1461 1460 1460 1459 1459 1458 1457 1457 1456 1456 1455 1454 1453 1453 1452 1452 1451 1450 1449 1448 1447 1447 1446 1445 1444 1443 1443 1442 1442 1441 1441 1440 1440 1440 1439 1439 1439 1438 1438
1480 1479 1478 1478 1477 1477 1476 1476 1475 1475 1474 1474 1473 1472 1472 1471 1470 1470 1469 1468 1467 1467 1466 1466 1465 1464 1464 1463 1462 1461 1461 1460 1459 1459 1458 1457 1457 1457 1456 1455 1455 1454 1453 1452 1452 1451 1451 1450 1450 1449 1448 1447 1447 1446 1445 1444 1443 1442 1442 1442 1441 1441 1440 1440 1439 1439 1439 1438 1438
1480 1479 1478 1478 1477 1477 1476 1476 1475 1475 1474 1474 1473 1472 1472 1471 1471 1470 1469 1468 1467 1467 1466 1466 1465 1464 1464 1463 1462 1461 1460 1460 1459 1458 1457 1457 1457 1456 1455 1455 1454 1454 1453 1452 1452 1451 1450 1450 1449 1449 1448 1447 1447 1446 1445 1444 1444 1443 1442 1442 1441 1441 1441 1440 1440 1439 1439 1438 1438
1479 1478 1478 1477 1477 1477 1476 1476 1475 1475 1474 1474 1473 1472 1472 1471 1470 1470 1469 1468 1467 1467 1466 1465 1464 1464 1463 1462 1462 1461 1460 1460 1459 1458 1457 1457 1456 1455 1455 1454 1454 1453 1452 1452 1451 1450 1450 1449 1448 1448 1447 1447 1447 1446 1445 1445 1444 1443 1442 1442 1441 1441 1441 1440 1440 1439 1438 1438 1437
1478 1478 1477 1477 1477 1476 1476 1475 1475 1474 1474 1473 1472 1472 1471 1471 1470 1469 1469 1468 1467 1467 1466 1465 1464 1463 1463 1462 1461 1461 1460 1459 1458 1458 1457 1456 1456 1455 1454 1454 1453 1452 1452 1451 1451 1450 1449 1448 1448 1447 1447 1446 1446 1445 1445 1444 1444 1443 1442 1442 1441 1441 1440 1440 1439 1439 1438 1438 1437
1477 1477 1477 1477 1476 1476 1475 1475 1474 1473 1473 1472 1472 1471 1470 1470 1469 1469 1468 1467 1467 1466 1465 1464 1464 1463 1462 1462 1461 1460 1459 1459 1458 1457 1457 1456 1455 1455 1454 1453 1452 1452 1451 1451 1450 1449 1448 1448 1447 1447 1446 1445 1445 1444 1443 1443 1443 1442 1442 1442 1441 1440 1440 1439 1439 1438 1438 1437 1437
1477 1477 1476 1476 1475 1475 1474 1474 1473 1472 1472 1471 1471 1470 1470 1469 1468 1468 1467 1467 1466 1465 1464 1464 1463 1462 1462 1461 1460 1460 1459 1458 1457 1457 1456 1456 1455 1454 1453 1453 1452 1452 1451 1450 1449 1449 1448 1447 1447 1446 1445 1445 1444 1443 1443 1442 1442 1442 1441 1441 1440 1440 1439 1439 1438 1437 1437 1437 1436
1476 1476 1476 1475 1474 1474 1473 1473 1472 1472 1471 1470 1470 1469 1469 1468 1467 1467 1466 1466 1465 1464 1463 1463 1462 1462 1461 1460 1460 1459 1458 1457 1457 1456 1456 1455 1454 1453 1453 1452 1451 1451 1450 1449 1449 1448 1447 1447 1446 1445 1444 1444 1443 1443 1442 1442 1441 1441 1440 1440 1439 1439 1438 1438 1437 1437 1436 1436 1435
1476 1476 1475 1474 1474 1473 1472 1472 1471 1471 1470 1469 1469 1468 1468 1467 1467 1466 1465 1465 1464 1463 1462 1462 1461 1460 1460 1459 1459 1458 1457 1457 1456 1455 1455 1454 1453 1453 1452 1451 1451 1450 1449 1448 1448 1447 1447 1446 1445 1444 1444 1443 1442 1442 1442 1441 1440 1440 1439 1439 1438 1438 1437 1437 1437 1436 1435 1435 1434
1476 1475 1474 1474 1473 1473 1472 1471 1471 1470 1469 1468 1468 1467 1467 1466 1466 1465 1464 1463 1463 1462 1462 1461 1460 1459 1458 1458 1457 1457 1456 1456 1455 1454 1453 1453 1452 1452 1451 1450 1450 1449 1448 1447 1447 1446 1446 1445 1444 1444 1443 1442 1442 1441 1441 1440 1439 1439 1438 1438 1437 1437 1436 1436 1436 1435 1434 1434 1433
1475 1474 1474 1473 1473 1472 1472 1471 1470 1469 1468 1468 1467 1467 1466 1465 1465 1464 1463 1463 1462 1461 1461 1460 1459 1458 1457 1457 1456 1455 1455 1454 1453 1453 1452 1452 1451 1451 1450 1449 1449 1448 1447 1447 1446 1445 1444 1444 1443 1442 1442 1441 1441 1440 1439 1439 1438 1438 1437 1437 1436 1436 1435 1435 1434 1434 1433 1433 1432
1474 1473 1473 1472 1472 1471 1471 1470 1469 1468 1468 1467 1467 1466 1466 1465 1464 1463 1463 1462 1461 1460 1460 1459 1458 1457 1457 1456 1455 1454 1453 1453 1452 1452 1451 1451 1450 1449 1449 1448 1448 1447 1447 1446 1445 1444 1443 1442 1442 1441 1441 1440 1439 1439 1438 1438 1437 1437 1436 1436 1435 1434 1434 1434 1433 1433 1432 1432 1431
1473 1472 1472 1472 1471 1470 1470 1469 1468 1468 1467 1467 1466 1466 1465 1464 1464 1463 1462 1461 1460 1460 1459 1458 1457 1457 1456 1455 1454 1453 1453 1452 1451 1451 1450 1449 1449 1448 1447 1447 1447 1446 1446 1445 1444 1443 1442 1441 1441 1440 1439 1438 1438 1437 1437 1436 1436 1436 1435 1434 1434 1433 1433 1432 1432 1432 1431 1431 1430
1472 1471 1471 1470 1470 1469 1469 1468 1467 1467 1467 1466 1466 1465 1465 1464 1463 1462 1462 1461 1460 1459 1458 1457 1456 1456 1455 1454 1453 1452 1452 1451 1450 1450 1449 1448 1447 1447 1446 1446 1445 1445 1444 1444 1443 1442 1441 1440 1439 1438 1438 1437 1436 1435 1435 1434 1434 1434 1433 1433 1432 1432 1432 1431 1431 1430 1430 1429 1429
1471 1470 1470 1469 1469 1468 1467 1467 1467 1466 1466 1465 1465 1464 1464 1463 1462 1462 1461 1460 1459 1458 1457 1456 1456 1455 1454 1453 1452 1452 1451 1450 1450 1449 1448 1447 1447 1446 1445 1445 1444 1443 1443 1442 1442 1441 1440 1439 1438 1437 1437 1436 1435 1434 1433 1432 1432 1432 1431 1431 1431 1430 1430 1430 1429 1429 1428 1428 1427
1470 1469 1469 1468 1468 1467 1467 1466 1466 1465 1465 1465 1464 1463 1463 1462 1462 1461 1460 1459 1458 1457 1456 1455 1455 1454 1453 1452 1451 1451 1450 1449 1448 1448 1447 1447 1446 1445 1444 1443 1443 1442 1441 1441 1440 1439 1438 1437 1437 1436 1435 1434 1433 1432 1432 1431 1430 1429 1429 1428 1428 1428 1428 1428 1428 1427 1427 1426 1426
1468 1468 1468 1467 1467 1467 1466 1466 1465 1465 1464 1464 1463 1462 1462 1461 1461 1460 1459 1458 1457 1456 1455 1454 1454 1453 1452 1451 1450 1449 1448 1448 1447 1446 1446 1445 1444 1444 1443 1442 1442 1441 1440 1439 1439 1438 1437 1436 1435 1434 1433 1432 1432 1431 1430 1429 1428 1427 1427 1426 1426 1426 1426 1426 1426 1426 1425 1425 1424
1467 1467 1467 1467 1466 1466 1465 1465 1464 1464 1463 1463 1462 1462 1461 1460 1459 1459 1458 1457 1456 1455 1454 1453 1452 1452 1451 1450 1449 1448 1447 1447 1446 1445 1444 1443 1443 1442 1442 1441 1440 1440 1439 1438 1438 1437 1436 1435 1434 1432 1431 1430 1430 1429 1428 1428 1427 1426 1425 1424 1423 1423 1423 1423 1423 1423 1423 1423 1422
1467 1466 1466 1466 1465 1465 1464 1464 1463 1463 1462 1462 1461 1460 1460 1459 1458 1457 1457 1456 1455 1454 1453 1452 1452 1451 1450 1449 1448 1447 1446 1445 1444 1443 1442 1442 1441 1440 1440 1439 1438 1437 1437 1437 1436 1436 1435 1434 1433 1432 1430 1429 1428 1427 1426 1426 1425 1424 1424 1423 1422 1421 1420 1420 1420 1420 1421 1421 1420
1465 1465 1465 1464 1464 1463 1463 1462 1462 1462 1461 1460 1460 1459 1458 1457 1457 1456 1455 1454 1453 1453 1452 1451 1450 1449 1448 1447 1447 1446 1445 1444 1443 1442 1441 1440 1439 1438 1437 1437 1436 1436 1435 1435 1434 1434 1433 1432 1432 1431 1430 1428 1427 1425 1424 1423 1423 1422 1422 1421 1420 1420 1419 1418 1417 1417 1417 1417 1418
1464 1464 1463 1463 1463 1462 1462 1462 1461 1460 1460 1459 1458 1458 1457 1456 1455 1455 1454 1453 1452 1452 1451 1450 1449 1448 1447 1446 1445 1444 1443 1442 1442 1441 1440 1439 1438 1437 1436 1435 1434 1434 1433 1432 1432 1431 1431 1430 1430 1429 1428 1427 1425 1424 1422 1422 1421 1420 1420 1419 1419 1418 1417 1416 1416 1415 1415 1414 1415
1463 1462 1462 1462 1462 1461 1461 1460 1460 1459 1458 1457 1457 1456 1456 1455 1454 1453 1452 1452 1451 1450 1449 1448 1447 1447 1446 1445 1444 1443 1442 1441 1440 1439 1438 1437 1436 1435 1434 1434 1433 1432 1431 1431 1429 1428 1428 1427 1427 1427 1426 1425 1424 1422 1421 1420 1419 1418 1417 1417 1417 1416 1416 1415 1414 1413 1412 1412 1412
1461 1461 1461 1461 1460 1460 1459 1459 1458 1457 1457 1456 1456 1455 1454 1453 1453 1452 1451 1450 1449 1448 1447 1447 1446 1445 1444 1443 1442 1441 1440 1439 1438 1437 1436 1435 1434 1433 1432 1432 1431 1430 1429 1429 1427 1427 1425 1424 1424 1423 1423 1422 1422 1420 1419 1418 1417 1416 1415 1415 1414 1414 1413 1413 1412 1411 1411 1410 1409
1460 1460 1459 1459 1459 1458 1458 1457 1457 1456 1455 1455 1454 1453 1452 1452 1451 1450 1449 1448 1447 1446 1446 1445 1444 1443 1442 1441 1440 1439 1438 1437 1437 1436 1434 1433 1432 1431 1431 1430 1429 1428 1428 1427 1426 1425 1423 1422 1421 1420 1420 1419 1418 1417 1417 1416 1415 1414 1413 1412 1412 1412 1411 1411 1410 1409 1409 1408 1407
1459 1458 1458 1457 1457 1457 1456 1456 1455 1454 1454 1453 1452 1452 1451 1450 1449 1448 1447 1447 1445 1444 1443 1442 1442 1440 1439 1439 1438 1437 1436 1435 1434 1433 1432 1432 1430 1429 1428 1428 1427 1427 1426 1425 1424 1423 1422 1421 1419 1418 1417 1416 1415 1414 1413 1413 1412 1412 1411 1410 1410 1409 1409 1408 1408 1407 1407 1406 1405
1457 1457 1456 1456 1455 1455 1454 1454 1453 1452 1452 1451 1450 1450 1449 1448 1447 1446 1446 1445 1443 1442 1441 1440 1439 1438 1437 1436 1435 1434 1433 1433 1432 1431 1430 1429 1428 1427 1426 1425 1425 1424 1424 1423 1422 1421 1420 1419 1417 1416 1415 1414 1412 1411 1410 1409 1409 1409 1408 1408 1407 1407 1407 1406 1405 1405 1404 1404 1403
1456 1455 1455 1454 1453 1453 1452 1452 1451 1451 1450 1449 1448 1448 1447 1446 1445 1444 1443 1442 1441 1440 1439 1438 1437 1436 1435 1434 1433 1432 1431 1430 1429 1428 1428 1427 1426 1425 1424 1423 1422 1422 1422 1421 1420 1419 1417 1417 1415 1414 1413 1412 1410 1408 1407 1406 1405 1405 1405 1405 1405 1404 1404 1403 1403 1402 1402 1402 1401
1454 1453 1453 1452 1452 1451 1451 1450 1449 1449 1448 1447 1446 1446 1445 1444 1443 1442 1441 1440 1439 1438 1437 1436 1435 1434 1433 1432 1431 1430 1428 1427 1426 1426 1425 1424 1423 1422 1421 1420 1420 1420 1419 1418 1417 1416 1415 1414 1413 1412 1411 1409 1407 1406 1405 1403 1402 1401 1401 1401 1401 1401 1401 1401 1400 1400 1399 1399 1398
1452 1452 1451 1450 1450 1449 1448 1448 1447 1447 1446 1445 1444 1443 1443 1442 1441 1440 1439 1438 1437 1436 1435 1434 1433 1432 1431 1429 1428 1427 1426 1425 1424 1422 1422 1421 1420 1419 1418 1417 1417 1417 1416 1416 1415 1414 1412 1412 1410 1409 1408 1407 1405 1403 1402 1401 1399 1398 1397 1397 1397 1397 1398 1398 1397 1397 1397 1396 1396
1450 1450 1449 1448 1447 1447 1447 1446 1445 1444 1444 1443 1442 1442 1441 1440 1439 1438 1437 1436 1435 1433 1432 1431 1430 1429 1428 1427 1426 1425 1424 1423 1422 1420 1419 1418 1417 1416 1415 1414 1413 1413 1413 1412 1412 1411 1410 1409 1408 1407 1405 1404 1402 1401 1400 1398 1397 1396 1395 1394 1393 1393 1394 1394 1394 1394 1394 1393 1393
1448 1448 1447 1446 1446 1445 1445 1444 1443 1442 1442 1441 1440 1439 1439 1437 1437 1436 1435 1434 1432 1431 1429 1428 1428 1427 1426 1425 1423 1422 1421 1420 1419 1418 1416 1415 1415 1414 1412 1411 1410 1409 1410 1409 1408 1407 1407 1406 1405 1404 1403 1401 1399 1398 1397 1396 1395 1393 1392 1391 1390 1390 1390 1390 1390 1390 1390 1390 1390
1447 1446 1445 1445 1444 1443 1442 1442 1441 1441 1440 1439 1438 1437 1437 1436 1434 1433 1432 1432 1430 1429 1427 1426 1425 1424 1423 1422 1420 1419 1418 1417 1417 1416 1414 1412 1412 1411 1410 1408 1407 1406 1406 1406 1405 1404 1403 1403 1402 1401 1400 1398 1397 1395 1394 1393 1392 1391 1390 1389 1388 1387 1387 1387 1387 1387 1387 1387 1387
1445 1444 1444 1443 1442 1442 1441 1440 1439 1439 1438 1437 1436 1435 1434 1433 1432 1431 1430 1429 1428 1427 1425 1424 1422 1421 1420 1419 1417 1416 1415 1414 1413 1413 1412 1410 1409 1408 1407 1405 1404 1403 1403 1403 1402 1401 1400 1400 1399 1398 1397 1396 1394 1393 1392 1390 1389 1387 1387 1386 1385 1384 1384 1383 1383 1383 1383 1383 1383
1443 1443 1442 1441 1441 1440 1439 1438 1437 1437 1436 1435 1434 1433 1432 1431 1430 1429 1427 1427 1426 1424 1423 1421 1420 1418 1417 1416 1415 1413 1412 1410 1410 1409 1409 1407 1406 1405 1404 1402 1401 1400 1399 1399 1399 1398 1397 1397 1396 1395 1394 1393 1392 1390 1389 1388 1386 1385 1383 1383 1383 1382 1381 1380 1380 1379 1379 1379 1379